www.pogodaiklimat.ru

Погода и климат >> Архив погоды >> Австралия >> Tennant Creek Airport


ПОГОДА в Tennant Creek Airport

  • Прогноз погоды в Tennant Creek Airport
  • Монитор погоды в Tennant Creek Airport
  • Климат города

АРХИВ ПОГОДЫ в Tennant Creek Airport

Время (UTC), дата Ветер
(напр.,м/с)
 
Видим.   Явления Облачность Т
(С)
Тd
(С)
f
(%)
Тe
(С)
Тes
(С)
Комфортность P
(гПа)
Po
(гПа)
Тmin
(С)
Tmax
(С)
R
(мм)
R24
(мм)
S
(см)
14 14.10 С 2 н/о н/о +30.1 +12.1 33 +31 +31 жарко 1008.4 966.5
15 14.10 С 2 н/о н/о +30.8 +11.2 30 +31 +31 жарко 1007.7 965.9
17 14.10 З 3 н/о н/о +29.4 +12.3 35 +30 +30 жарко 1007.2 965.4
18 14.10 С 7 н/о н/о +29.4 +11.9 34 +30 +30 жарко 1007.4 965.6
20 14.10 С 4 н/о н/о +28.0 +12.0 37 +29 +29 жарко 1008.5 966.6
21 14.10 С 4 н/о н/о +28.4 +11.9 36 +29 +29 жарко 1009.0 967.1
23 14.10 С 5 н/о н/о +29.3 +11.8 34 +30 +30 жарко 1010.1 968.2
00 15.10 С 4 н/о н/о +31.0 +12.4 32 +32 +32 жарко 1010.3 968.4
02 15.10 С 5 н/о н/о +34.5 +12.2 26 +35 +35 очень
жарко
1009.7 967.8
03 15.10 С 6 н/о н/о +35.5 +11.2 23 +35 +35 очень
жарко
1008.7 966.8
05 15.10 СВ 3 н/о н/о +37.6 +11.5 21 +37 +37 очень
жарко
1007.0 965.2
06 15.10 С 4 н/о н/о +37.8 +11.7 21 +37 +37 очень
жарко
1006.6 964.8
08 15.10 С 3 н/о н/о +36.5 +10.6 21 +36 +36 очень
жарко
1006.5 964.7
09 15.10 СВ 4 н/о н/о +35.0 +10.8 23 +34 +34 очень
жарко
1007.0 965.2
11 15.10 С 5 н/о н/о +31.9 +13.2 32 +33 +33 жарко 1008.5 966.6
12 15.10 С 5 н/о н/о +31.6 +12.9 32 +32 +32 жарко 1009.1 967.2
14 15.10 С 5 н/о н/о +29.9 +13.2 36 +31 +31 жарко 1008.9 967.0
15 15.10 С 4 н/о н/о +27.8 +14.1 43 +30 +30 жарко 1008.5 966.6
17 15.10 С 4 н/о н/о +28.5 +15.4 45 +31 +31 душно 1007.7 965.9
18 15.10 СВ 4 н/о н/о +28.1 +15.1 45 +31 +31 душно 1007.6 965.8
20 15.10 В 9 н/о н/о +24.4 +14.5 54 +27 +27 жарко 1009.7 967.8
21 15.10 ЮВ 8 н/о н/о +23.6 +14.3 56 +26 +26 жарко 1010.7 968.7
23 15.10 В 8 н/о н/о +26.0 +16.0 54 +29 +29 душно 1012.2 970.2
00 16.10 ЮВ 8 н/о н/о +27.9 +16.2 49 +31 +31 душно 1012.9 970.9
02 16.10 В 8 н/о н/о +31.3 +15.7 39 +34 +34 душно 1011.7 969.7
03 16.10 В 6 н/о н/о +32.7 +15.7 36 +35 +35 душно 1010.7 968.7
05 16.10 В 5 н/о н/о +33.6 +15.1 33 +35 +35 душно 1008.5 966.6
06 16.10 В 5 н/о н/о +34.3 +15.2 32 +36 +36 душно 1007.8 966.0
08 16.10 В 5 н/о н/о +34.1 +15.1 32 +36 +36 душно 1007.7 965.9
09 16.10 В 5 н/о н/о +33.0 +15.0 34 +35 +35 душно 1008.8 966.9
11 16.10 ЮВ 6 н/о н/о +30.7 +14.3 37 +33 +33 душно 1010.7 968.7
12 16.10 ЮВ 7 н/о н/о +29.8 +8.8 27 +29 +29 жарко 1011.4 969.4
14 16.10 ЮВ 7 н/о н/о +28.2 +8.0 28 +28 +28 жарко 1011.6 969.6
15 16.10 В 7 н/о н/о +27.7 +8.1 29 +27 +27 жарко 1012.1 970.1
17 16.10 В 5 н/о н/о +24.2 +18.6 71 +29 +29 душно 1012.0 970.0
18 16.10 В 4 н/о н/о +23.5 +6.5 33 +28 +28 душно 1012.2 970.2
20 16.10 ЮВ 6 н/о н/о +23.9 +6.7 33 +24 +24 комфорт 1014.3 972.2
21 16.10 В 10 н/о н/о +23.4 +4.9 30 +23 +23 комфорт 1013.9 971.8
23 16.10 ЮВ 9 н/о н/о +24.1 +4.0 27 +24 +24 комфорт 1015.3 973.2
00 17.10 В 9 н/о н/о +25.0 +4.2 26 +24 +24 комфорт 1015.3 973.2
02 17.10 В 8 н/о н/о +29.2 +6.6 24 +28 +28 жарко 1014.0 971.9
03 17.10 В 6 н/о н/о +29.8 +6.5 23 +29 +29 жарко 1013.1 971.0
05 17.10 В 4 н/о н/о +32.2 +8.4 23 +31 +31 жарко 1010.8 968.8
06 17.10 СВ 6 н/о н/о +32.8 +8.3 22 +31 +31 жарко 1009.8 967.9
08 17.10 В 5 н/о н/о +32.0 +8.3 23 +31 +31 жарко 1009.8 967.9
09 17.10 В 5 н/о н/о +31.0 +8.1 24 +30 +30 жарко 1010.5 968.6
11 17.10 В 3 н/о н/о +28.7 +8.9 29 +28 +28 жарко 1011.7 969.7
12 17.10 ЮВ 3 н/о н/о +27.5 +9.3 32 +28 +28 жарко 1011.8 969.8
14 17.10 В 4 н/о н/о +26.4 +9.3 34 +27 +27 жарко 1011.6 969.6
15 17.10 В 4 н/о н/о +25.4 +8.4 34 +26 +26 жарко 1011.3 969.3
17 17.10 В 7 н/о н/о +24.5 +1.4 22 +23 +23 комфорт 1011.2 969.2
18 17.10 В 6 н/о н/о +23.9 -0.4 20 +23 +23 комфорт 1011.1 969.1
20 17.10 В 8 н/о н/о +22.4 -0.3 22 +22 +22 комфорт 1012.2 970.2
21 17.10 В 8 н/о н/о +22.3 -0.4 22 +21 +21 комфорт 1013.2 971.1
23 17.10 В 9 н/о н/о +26.6 +0.4 18 +25 +25 комфорт 1014.3 972.2
00 18.10 В 9 н/о н/о +28.4 -1.6 14 +26 +26 жарко 1014.3 972.2
02 18.10 В 6 н/о н/о +31.8 0.0 13 +29 +29 жарко 1013.4 971.3
03 18.10 В 5 н/о н/о +32.9 -0.2 12 +30 +30 жарко 1012.2 970.2
05 18.10 СВ 3 н/о н/о +34.9 +1.3 12 +32 +32 жарко 1010.1 968.2
06 18.10 ЮВ 4 н/о н/о +35.1 +1.5 12 +32 +32 жарко 1009.4 967.5
08 18.10 В 4 н/о н/о +34.4 -0.3 11 +31 +31 жарко 1009.5 967.6
09 18.10 В 3 н/о н/о +33.1 +1.0 13 +30 +30 жарко 1010.1 968.2
11 18.10 В 3 н/о н/о +29.2 +1.7 17 +27 +27 жарко 1011.5 969.5
12 18.10 В 3 н/о н/о +28.4 +1.8 18 +26 +26 жарко 1011.8 969.8
14 18.10 В 4 н/о н/о +27.4 +0.2 17 +25 +25 комфорт 1011.7 969.7
15 18.10 СВ 4 н/о н/о +27.2 -0.8 16 +25 +25 комфорт 1011.6 969.6
17 18.10 СВ 4 н/о н/о +26.9 -1.9 15 +25 +25 комфорт 1010.9 968.9
18 18.10 В 5 н/о н/о +25.6 -1.2 17 +24 +24 комфорт 1010.8 968.8
20 18.10 В 5 н/о н/о +23.9 -1.1 19 +23 +23 комфорт 1011.8 969.8
21 18.10 СВ 5 н/о н/о +23.9 -1.1 19 +23 +23 комфорт 1012.4 970.4
23 18.10 СВ 7 н/о н/о +30.1 +2.4 17 +28 +28 жарко 1013.7 971.6
00 19.10 С 8 н/о н/о +32.6 +1.7 14 +30 +30 жарко 1013.8 971.7
02 19.10 СВ 7 н/о н/о +35.1 +1.5 12 +32 +32 жарко 1012.2 970.2
03 19.10 С 6 н/о н/о +36.1 +2.2 12 +33 +33 жарко 1011.0 969.0
05 19.10 З 4 н/о н/о +37.3 +3.1 12 +34 +34 очень
жарко
1008.9 967.0
06 19.10 СЗ 3 н/о н/о +37.7 +2.2 11 +34 +34 очень
жарко
1008.3 966.4
08 19.10 С 3 н/о н/о +36.6 +3.7 13 +34 +34 очень
жарко
1008.4 966.5
09 19.10 С 2 н/о н/о +34.4 +5.0 16 +32 +32 жарко 1009.0 967.1
11 19.10 СВ 3 н/о н/о +31.0 +5.4 20 +29 +29 жарко 1010.4 968.5
12 19.10 СВ 2 н/о н/о +29.3 +6.0 23 +28 +28 жарко 1010.8 968.8
14 19.10 СВ 2 н/о н/о +28.3 +6.4 25 +27 +27 жарко 1010.7 968.7
15 19.10 СВ 3 н/о н/о +28.2 +5.1 23 +27 +27 жарко 1010.1 968.2
17 19.10 С 2 н/о н/о +27.5 +3.9 22 +26 +26 жарко 1009.1 967.2
18 19.10 С 4 н/о н/о +29.6 +2.8 18 +27 +27 жарко 1009.0 967.1
20 19.10 С 5 н/о н/о +28.0 +5.0 23 +27 +27 жарко 1010.1 968.2
21 19.10 С 5 н/о н/о +27.4 +5.6 25 +26 +26 жарко 1011.0 969.0
23 19.10 С 6 н/о н/о +32.7 +6.8 20 +31 +31 жарко 1011.9 969.9
00 20.10 С 6 н/о н/о +35.0 +6.3 17 +33 +33 жарко 1012.1 970.1
02 20.10 СВ 3 н/о н/о +36.1 +4.4 14 +33 +33 жарко 1011.2 969.2
03 20.10 СЗ 4 н/о н/о +38.5 +7.3 15 +36 +36 очень
жарко
1010.1 968.2
05 20.10 ЮЗ 4 н/о н/о +39.3 +6.9 14 +37 +37 очень
жарко
1007.9 966.1
06 20.10 В 3 н/о н/о +38.4 +7.2 15 +36 +36 очень
жарко
1007.3 965.5
08 20.10 Ю 4 н/о н/о +36.3 +9.8 20 +35 +35 очень
жарко
1007.7 965.9
09 20.10 Ю 6 н/о н/о +35.2 +9.6 21 +34 +34 очень
жарко
1008.6 966.7
11 20.10 ЮВ 8 н/о н/о +33.2 +5.7 18 +31 +31 жарко 1010.9 968.9
12 20.10 ЮВ 8 н/о н/о +31.8 +6.1 20 +30 +30 жарко 1011.7 969.7
14 20.10 ЮВ 7 н/о н/о +29.5 +5.6 22 +28 +28 жарко 1012.3 970.3
15 20.10 ЮВ 7 н/о н/о +28.5 +6.0 24 +27 +27 жарко 1011.8 969.8
17 20.10 В 7 н/о н/о +26.8 +5.1 25 +26 +26 жарко 1012.1 970.1
18 20.10 В 7 н/о н/о +26.0 +4.5 25 +25 +25 комфорт 1012.1 970.1
20 20.10 В 8 н/о н/о +24.7 +2.8 24 +24 +24 комфорт 1012.9 970.9
21 20.10 В 7 н/о н/о +24.2 +1.8 23 +23 +23 комфорт 1013.9 971.8
23 20.10 В 9 н/о н/о +26.3 -3.3 14 +24 +24 комфорт 1015.2 973.1
00 21.10 В 9 н/о н/о +28.5 -2.6 13 +26 +26 жарко 1015.0 972.9
02 21.10 В 6 н/о н/о +31.1 -1.6 12 +28 +28 жарко 1013.6 971.5
03 21.10 СВ 4 н/о н/о +33.2 0.0 12 +30 +30 жарко 1012.5 970.5
05 21.10 ЮВ 4 н/о н/о +34.5 +1.0 12 +31 +31 жарко 1010.2 968.3
06 21.10 СВ 2 н/о н/о +35.7 +1.9 12 +32 +32 жарко 1009.1 967.2
08 21.10 ЮВ 2 н/о н/о +35.1 +2.6 13 +32 +32 жарко 1009.0 967.1
09 21.10 ЮВ 3 н/о н/о +34.0 +2.8 14 +31 +31 жарко 1009.5 967.6
11 21.10 В 3 н/о н/о +31.3 +3.4 17 +29 +29 жарко 1010.7 968.7

 

Местоположение метеостанции Tennant Creek Airport (Северная территория, Австралия): широта -19.63 долгота 134.18 высота над уровнем моря 377 м.

В архиве по умолчанию представлена погода в Tennant Creek Airport за последнюю неделю. Архивные данные за месяц целиком и за предыдущие месяцы, начиная с января 2011 года, Вы можете получить, выбрав интересующий диапазон дат из раскрывающегося списка и нажав кнопку "Ввод!".


*Определитесь, кто Вы:
робот инопланетянин человек

Внимание! Время в таблицах - всемирное. Для получения местного времени необходимо прибавить поправку, которая в Tennant Creek Airport равна 9.5 ч.

Смотрите также архив погоды в соседних городах и на ближайших метеорологических станциях:

Погода в Territory Grape Farm (Северная территория, Австралия) (319 км)
Погода в Daly Waters Aws (Северная территория, Австралия) (386 км)
Погода в Lajamanu (Северная территория, Австралия) (400 км)
Погода в Mcarthur River Mine (Северная территория, Австралия) (408 км)
Погода в Camooweal Township (Квинсленд, Австралия) (413 км)
Погода в Jervois (Северная территория, Австралия) (422 км)
Погода в Rabbit Flat (Северная территория, Австралия) (439 км)
Погода в Borroloola (Северная территория, Австралия) (454 км)
Погода в Alice Springs Airport (Северная территория, Австралия) (465 км)
Погода в Century Mine (Квинсленд, Австралия) (485 км)

Пояснения к столбцам:

Ветер - указаны скорость ветра в м/с - средняя за 10 мин, порывы в срок и между сроками (в фигурных скобках) и направление, откуда дует ветер: С - северный, СВ - северо-восточный, В - восточный, ЮВ - юго-восточный, Ю - южный, ЮЗ - юго-западный, З - западный, СЗ - северо-западный.
Видимость - горизонтальная дальность видимости в метрах или километрах. При видимости от 1 до 10 км при отсутствии осадков обычно наблюдается дымка, при ухудшении видимости до 1 км и менее - туман. В сухую погоду видимость может ухудшаться дымом, пылью или мглою.
Явления - указаны атмосферные явления, наблюдавшиеся в срок или в последний час перед сроком; фигурными скобками обозначены явления, наблюдавшиеся между сроками (за 1-3 часа до срока); квадратными скобками обозначены град или гололедные отложения с указанием их диаметра в мм.
Облачность - указаны через наклонную черту общая и нижняя облачность в баллах и высота нижней границы облаков в метрах; квадратными скобками обозначены формы облаков: Ci - перистые, Cs - перисто-слоистые, Cc - перисто-кучевые, Ac - высококучевые, As - высокослоистые, Sc - слоисто-кучевые, Ns - слоисто-дождевые, Cu - кучевые, Cb - кучево-дождевые. Подробнее классификацию облаков см. в Атласе облаков (PDF).
T - Температура воздуха - температура, измеренная на высоте 2 м над землей.
Td - Температура точки росы - температура, при понижении до которой содержащийся в воздухе водяной пар достигнет насыщения.
f - Относительная влажность воздуха - влажноcть воздуха, измеренная на высоте 2 м над землей.
Te - Эффективная температура - температура, которую ощущает одетый по сезону человек в тени. Характеристика душности погоды. При расчете учитывается влияние влажности воздуха и скорости ветра на теплоощущения человека.
Tes - Эффективная температура на солнце - температура, которую ощущает человек, с поправкой на солнечный нагрев. Характеристика знойности погоды. Зависит от высоты солнца над горизонтом, облачности и скорости ветра. Ночью, в пасмурную погоду, а также при ветре 12 м/с и более поправка равна нулю.
P - Атмосферное давление - приведенное к уровню моря атмосферное давление.
Po - Атмосферное давление - измеренное на уровне метеостанции атмосферное давление.
Tmin - Минимальная температура - минимум температуры воздуха на высоте 2 м над землей.
Tmax - Максимальная температура - максимум температуры воздуха на высоте 2 м над землей.
R - Количество осадков - Количество выпавших осадков за период времени, мм. При наведении курсора мыши на число - период времени, за который выпало указанное количество осадков.
R24 - Количество осадков - Количество выпавших осадков за 24 часа, мм.
S - Снежный покров - Высота снежного покрова, см. При наведении курсора мыши на число - состояние снежного покрова и степень покрытия местности в баллах.